AO-07 1 07530U 74089B 15350.90855968 -.00000018 00000-0 16408-3 0 9999 2 07530 101.5483 321.3318 0011862 308.8555 107.2119 12.53618500880156 FO-29 1 24278U 96046B 15350.85912228 -.00000020 00000-0 18906-4 0 9990 2 24278 98.5693 295.1679 0349837 317.5254 39.9292 13.53062078954721 SO-33 1 25509U 98061B 15350.90873567 .00000172 00000-0 19320-4 0 9993 2 25509 031.4347 295.3602 0347749 235.5611 121.1683 14.30104875896120 RS-22 1 27939U 03042A 15351.79775195 .00000701 00000-0 13540-3 0 9998 2 27939 97.8626 145.7936 0013401 159.6720 200.5051 14.66257939653092 HO-68 1 36122U 09072B 15351.64514381 -.00000059 00000-0 -43517-4 0 9999 2 36122 100.1699 29.7039 0007978 59.6104 300.5800 13.16331255288596 AO-73 1 39444U 13066AE 15351.79699414 .00001330 00000-0 17482-3 0 9996 2 39444 97.7081 47.6387 0057974 256.4091 103.0661 14.80708308110583 EO-79 1 40025U 14033R 15351.67135714 .00001429 00000-0 16319-3 0 9990 2 40025 97.9398 252.0771 0011724 308.0472 51.9685 14.87632302 81066 XW-2A 1 40903U 15049E 15351.90984005 .00007841 00000-0 23643-3 0 9996 2 40903 97.4515 0.0279 0018437 68.6337 337.6252 15.34417222 13589 XW-2C 1 40906U 15049H 15351.87533076 .00003792 00000-0 21977-3 0 9992 2 40906 97.4543 357.9848 0014965 312.5653 133.5354 15.12700026 13436 LILACSAT-2 1 40908U 15049K 15351.90448264 .00002352 00000-0 14043-3 0 9999 2 40908 97.4605 358.0042 0015512 304.8047 109.2784 15.11988849 13432 XW-2E 1 40909U 15049L 15351.91279412 .00005435 00000-0 30899-3 0 9990 2 40909 97.4541 358.0695 0014335 316.9712 89.0883 15.13208495 13441 UO-11 1 14781U 84021B 15351.14628518 .00000469 00000-0 64600-4 0 9995 2 14781 97.7775 43.4893 0008398 184.0588 176.0559 14.82612206709133 AO-16 1 20439U 90005D 15351.06323183 .00000113 00000-0 57859-4 0 9996 2 20439 98.5582 284.7067 0010592 346.6092 76.0559 14.32595112352924 LO-19 1 20442U 90005G 15350.82304415 .00000102 00000-0 53208-4 0 9992 2 20442 98.5285 283.4697 0011292 333.7303 26.3307 14.32783738353094 AO-27 1 22825U 93061C 15350.89678855 .00000086 00000-0 50689-4 0 9994 2 22825 098.7343 301.2733 0009199 129.1670 231.0331 14.29925072158770 IO-26 1 22826U 93061D 15351.54225957 .00000102 00000-0 56795-4 0 9992 2 22826 98.7287 302.0660 0009848 119.9463 240.2698 14.30246466159295 GO-32 1 25397U 98043D 15350.90761520 .00000049 00000-0 40426-4 0 9997 2 25397 098.5448 295.8309 0002003 123.6422 236.4948 14.23574451905564 NO-44 1 26931U 01043C 15351.00299660 .00000080 00000-0 62560-4 0 9997 2 26931 67.0523 65.4968 0007152 276.2258 83.8028 14.30369628741947 SO-50 1 27607U 02058C 15351.18347776 .00000642 00000-0 11114-3 0 9998 2 27607 64.5553 359.9302 0081467 253.4866 105.7275 14.74980204698271 CO-55 1 27844U 03031E 15351.49888997 .00000184 00000-0 10341-3 0 9994 2 27844 98.6944 357.4083 0010527 127.5613 232.6522 14.21888269646486 CO-57 1 27848U 03031J 15351.77598533 .00000152 00000-0 89213-4 0 9993 2 27848 98.7041 357.6831 0010380 134.1752 226.0280 14.21523325646428 AO-51 1 28375U 04025K 15351.04881831 .00000124 00000-0 49362-4 0 9999 2 28375 98.3119 286.4031 0083480 136.7606 224.0178 14.41730714602839 CP3 1 31129U 07012N 15350.85878321 .00000686 00000-0 15597-3 0 9992 2 31129 98.0066 308.9682 0097478 104.3229 256.8816 14.56079225459699 CO-65 1 32785U 08021C 15351.79722727 .00001015 00000-0 11821-3 0 9997 2 32785 97.6264 28.3983 0013438 174.0326 186.1054 14.87270820413514 PRISM 1 33493U 09002B 15351.84098309 .00002590 00000-0 24692-3 0 9991 2 33493 98.2340 198.1802 0017186 85.7848 274.5340 14.94206129373996 SOHLA-1 1 33496U 09002E 15351.86651307 .00000323 00000-0 60430-4 0 9992 2 33496 98.2356 121.6062 0005252 307.9880 222.8082 14.71495303370187 TISAT-1 1 36799U 10035E 15351.74132489 .00001641 00000-0 17940-3 0 9992 2 36799 98.0219 94.4168 0011993 329.8737 30.1789 14.89244502294269 STUDSAT 1 36801U 10035G 15351.20267047 .00019103 00000-0 92903-3 0 9990 2 36801 98.0771 121.8209 0005656 233.5885 126.4827 15.18452254295688 ALMASAT-1 1 38078U 12006B 15351.58537290 .00031731 35288-5 48784-3 0 9999 2 38078 69.4495 134.3342 0431835 1.2044 359.0026 14.90774371202259 CUBEBUG-1 1 39153U 13018D 15351.71498795 .00000992 00000-0 13917-3 0 9993 2 39153 98.0088 75.5094 0017572 24.3256 335.8781 14.79605857142611 ESTCUBE-1 1 39161U 13021C 15351.68604053 .00000894 00000-0 15220-3 0 9998 2 39161 98.0625 72.9399 0011014 89.9371 270.3110 14.71453920140224 DUCHIFAT-1 1 40021U 14033M 15351.64196560 .00001844 00000-0 20310-3 0 9996 2 40021 97.9415 252.7151 0012346 307.7332 52.2765 14.88752305 81096 NANOSATCBR1 1 40024U 14033Q 15351.68879172 .00001996 00000-0 22214-3 0 9993 2 40024 97.9394 252.3744 0011531 307.2130 52.8033 14.88239648 81088 DTUSAT-2 1 40030U 14033W 15351.67522297 .00001471 00000-0 16926-3 0 9993 2 40030 97.9381 251.6813 0011041 301.2746 58.7388 14.87267961 81045 ANTELSAT 1 40034U 14033AA 15351.73632697 .00001329 00000-0 20902-3 0 9991 2 40034 97.9244 239.5497 0058267 251.4139 108.0752 14.73107305 80316 MET-2/21 1 22782U 93055A 15350.80835904 .00000115 00000-0 90383-4 0 9998 2 22782 82.5500 98.7643 0022841 166.0669 306.7831 13.83782808125858 OKEAN-4 1 23317U 94066A 15350.87667522 .00000981 00000-0 10652-3 0 9993 2 23317 82.5390 273.7819 0021705 84.2270 339.6544 14.86964292144442 NOAA-14 1 23455U 94089A 15351.54232025 .00000000 00000-0 23028-4 0 9996 2 23455 98.7398 69.1104 0008398 278.7486 196.4422 14.14062550 81449 NOAA-15 1 25338U 98030A 15351.54380249 .00000099 00000-0 60614-4 0 9990 2 25338 98.7794 350.3718 0010661 2.0555 358.0666 14.25686408914962 RESURS 1 25394U 98043A 15350.91185950 .00000017 00000-0 25744-4 0 9993 2 25394 098.4914 299.6237 0002454 094.1845 333.9850 14.24464448906270 FENGYUN1 1 25730U 99025A 15351.50790999 .00001378 00000-0 75091-3 0 9999 2 25730 98.9603 316.4913 0020463 340.7789 128.0890 14.13765442854950 OKEAN-0 1 25860U 99039A 15350.99548326 .00000465 00000-0 74704-4 0 9992 2 25860 98.1198 319.6195 0001904 91.3844 309.2074 14.76229410882959 NOAA-16 1 26536U 00055A 15351.55146225 .00000050 00000-0 50319-4 0 9994 2 26536 98.9217 57.1568 0011461 75.6722 284.5722 14.13126162785562 NOAA-17 1 27453U 02032A 15351.56528081 .00000045 00000-0 36796-4 0 9992 2 27453 98.3609 328.6684 0011927 10.4931 349.6496 14.24913653700773 NOAA-18 1 28654U 05018A 15351.56106700 .00000081 00000-0 69184-4 0 9990 2 28654 99.1941 348.7791 0014520 163.5123 196.6522 14.12255160544957 NOAA-19 1 33591U 09005A 15351.55683167 .00000149 00000-0 10611-3 0 9997 2 33591 99.0153 302.0887 0014378 17.2521 342.9135 14.12016430353368 HUBBLE 1 20580U 90037B 15351.20045916 .00001737 00000-0 98863-4 0 9992 2 20580 28.4711 26.8153 0003022 47.3576 20.9334 15.07982019207455 ISS 1 25544U 98067A 15351.97383005 .00017022 00000-0 25646-3 0 9998 2 25544 51.6441 246.8665 0007753 290.2638 183.0859 15.54883025976638 CO-58 1 28895U 05043F 15351.77366306 .00000621 00000-0 12956-3 0 9992 2 28895 97.8207 170.0105 0018265 77.1535 283.1707 14.63021810540431 FALCON 1 30776U 07006E 15351.86662955 .00008040 00000-0 29698-3 0 9997 2 30776 35.4256 287.5469 0001105 252.1019 107.9584 15.27073286484379 MAST 1 31126U 07012K 15351.45688053 .00000473 00000-0 11088-3 0 9992 2 31126 97.9871 311.4328 0092050 84.3698 276.7989 14.56234672460156 CAPE1 1 31130U 07012P 15351.16919971 .00000561 00000-0 13015-3 0 9991 2 31130 98.0085 308.6832 0098182 105.5960 255.6101 14.55736336459500 COMPASS 1 32787U 08021E 15351.81199637 .00002307 00000-0 23581-3 0 9991 2 32787 97.6285 33.6833 0013548 157.0093 203.1735 14.91457190413873 AAUSAT2 1 32788U 08021F 15351.80691319 .00002678 00000-0 26524-3 0 9996 2 32788 97.6291 35.5136 0013125 152.9466 207.2440 14.92588496413982 DO-64 1 32789U 08021G 15351.12852538 .00005398 00000-0 41945-3 0 9990 2 32789 97.6246 48.4989 0012510 153.4751 206.7117 15.01662408414514 CO-66 1 32791U 08021J 15351.07198958 .00001597 00000-0 17375-3 0 9993 2 32791 97.6281 30.2458 0014024 167.9486 192.2070 14.89337672413538 RS-30 1 32953U 08025A 15351.66257100 .00000010 00000-0 -13620-7 0 9990 2 32953 82.5033 220.1386 0019685 40.4828 319.7713 12.43065776343408 METEOR-M 1 35865U 09049A 15351.66135619 -.00000037 00000-0 20169-5 0 9995 2 35865 98.4790 25.2203 0001558 324.1158 144.9878 14.22054528324286 RS-38 1 35869U 09049E 15351.63927922 .00000037 00000-0 35421-4 0 9997 2 35869 98.4708 24.7393 0004007 310.9406 49.1429 14.22321738324338 JUGNU 1 37839U 11058B 15351.83191715 .00000358 00000-0 49203-4 0 9993 2 37839 19.9598 169.1687 0018945 270.3693 216.4728 14.12510689216217 SRMSAT 1 37841U 11058D 15350.97630352 .00000342 00000-0 42972-4 0 9994 2 37841 19.9704 204.7909 0011946 179.6104 321.0861 14.10514710215783 RAX-2 1 37853U 11061D 15351.80371170 .00005612 00000-0 33520-3 0 9997 2 37853 101.7090 293.2923 0188711 258.9359 99.0576 14.98188277224574 AUBIESAT 1 37854U 11061E 15351.84177417 .00004768 00000-0 27916-3 0 9993 2 37854 101.6974 297.7218 0177656 251.1149 107.0725 15.00462019224736 HRBE 1 37855U 11061F 15351.79555137 .00006155 00000-0 34765-3 0 9999 2 37855 101.7107 295.8393 0193322 254.9272 103.0475 14.99353915224644 HORYU-2 1 38340U 12025D 15351.47389826 .00001151 00000-0 18024-3 0 9996 2 38340 98.3362 326.4070 0010715 230.2317 129.7947 14.74717605192547 RS-40 1 38735U 12041C 15351.69189231 .00000040 00000-0 21992-3 0 9998 2 38735 82.4756 305.5515 0017166 136.7893 223.4528 12.42570067153708 PROITERES 1 38756U 12047B 15351.85545478 .00000614 00000-0 96805-4 0 9997 2 38756 98.2280 94.3531 0013459 72.4766 287.7915 14.76035600176093 BEESAT-3 1 39134U 13015E 15351.35792720 .00005027 00000-0 28306-3 0 9996 2 39134 64.8708 190.6211 0018549 232.4652 127.4787 15.14219432146410 BEESAT-2 1 39136U 13015G 15351.69680358 .00003925 00000-0 23591-3 0 9994 2 39136 64.8715 193.5764 0018569 230.2530 129.6958 15.12232394146399 ZACUBE-1 1 39417U 13066B 15351.15938141 .00001095 00000-0 14717-3 0 9995 2 39417 97.7075 46.6161 0058627 259.9462 99.5132 14.80099659111698 TRITON-1 1 39427U 13066M 15351.30389606 .00000833 00000-0 14344-3 0 9994 2 39427 97.6917 31.0696 0113991 302.5911 56.4329 14.66952631110707 DELFIN3XT 1 39428U 13066N 15350.70285113 .00001689 00000-0 28515-3 0 9991 2 39428 97.6936 28.5252 0122199 310.4994 48.5612 14.65895071110471 GOMX-1 1 39430U 13066Q 15351.62821986 .00001014 00000-0 19568-3 0 9990 2 39430 97.6873 21.3168 0152505 332.1148 27.1921 14.58359073110113 LO-74 1 39440U 13066AA 15351.74004208 .00000984 00000-0 14685-3 0 9994 2 39440 97.7008 40.9425 0080139 274.3971 84.8086 14.74886901111387 PUCPSAT-1 1 39442U 13066AC 15351.82562056 .00001628 00000-0 17644-3 0 9999 2 39442 97.7197 57.5071 0031572 234.7816 125.0445 14.89215266111196 SPROUT 1 39770U 14029E 15351.36377069 .00003865 00000-0 46368-3 0 9990 2 39770 97.8733 85.7849 0008811 328.8827 31.1905 14.84593163 84805 POPSAT-HIP1 1 40028U 14033U 15351.85998252 .00001917 00000-0 21727-3 0 9998 2 40028 97.9425 252.3862 0013150 305.1064 54.8925 14.87516610 81088 EO-80 1 40032U 14033Y 15351.76024451 .00001483 00000-0 17094-3 0 9994 2 40032 97.9389 251.7773 0011008 300.9897 59.0236 14.87197661 81053 VELOX-1 1 40057U 14034E 15351.84025985 .00001555 00000-0 23169-3 0 9994 2 40057 98.2060 72.8890 0011614 18.3887 341.7734 14.76326291 78976 DAURIA DX 1 1 40071U 14037C 15351.82372690 .00000754 00000-0 10567-3 0 9997 2 40071 98.3426 70.6596 0009021 19.0433 341.1109 14.80633758 77964 UKUBE-1 1 40074U 14037F 15351.82464127 .00001624 00000-0 20853-3 0 9993 2 40074 98.3447 72.0669 0005512 27.3755 332.7741 14.82690221 78045 HODOYOSHI-1 1 40299U 14070B 15351.89199087 .00003836 00000-0 17867-3 0 9994 2 40299 97.4444 71.1358 0013008 203.9873 247.1762 15.20437697 61726 CHUBUSAT-1 1 40300U 14070C 15351.86203655 .00004226 00000-0 20506-3 0 9999 2 40300 97.4418 69.8476 0020618 211.7794 284.7560 15.18848743 61648 QSAT-EOS 1 40301U 14070D 15351.85461824 .00007919 00000-0 37492-3 0 9997 2 40301 97.4366 69.0554 0029373 213.5070 283.5741 15.19225106 61601 TSUBAME 1 40302U 14070E 15351.86721978 .00004570 00000-0 24865-3 0 9998 2 40302 97.4337 66.6482 0040746 221.5802 273.1032 15.14238420 61451 FIREBIRD FU3 1 40377U 15003B 15351.61772795 .00005915 00000-0 28137-3 0 9993 2 40377 99.0951 59.1559 0150841 12.0431 348.4335 15.10137959 48205 FIREBIRD FU4 1 40378U 15003C 15351.74751318 .00006138 00000-0 29145-3 0 9994 2 40378 99.0951 59.3184 0151101 11.5706 348.8928 15.10142186 48223 GRIFEX 1 40379U 15003D 15351.83138653 .00003846 00000-0 18987-3 0 9991 2 40379 99.0964 59.0544 0153631 13.5091 347.0174 15.08921501 48210 LAMBDA-SAT 1 40458U 98067GB 15136.30676273 .20783109 12527-4 14817-2 0 9995 2 40458 051.6075 233.7697 0010355 318.5347 043.1720 16.39926603 21161 NO-84 1 40654U 15025X 15351.41812954 .00014119 00000-0 33709-3 0 02142 2 40654 054.9862 142.3878 0225424 340.3425 018.9077 15.19662311031975 NO-83 1 40655U 15025X 15350.92871270 .00019868 00000-0 45141-3 0 02187 2 40655 054.9856 142.9224 0216496 339.8106 019.4467 15.22150868031925 DEORBITSAIL 1 40719U 15032E 15351.50910212 .00001714 00000-0 26151-3 0 9998 2 40719 98.0356 239.5635 0018080 101.7093 258.6145 14.75054787 23559 NUDT-PHONESAT 1 40900U 15049B 15351.86314907 .00009215 00000-0 50124-3 0 9997 2 40900 97.4474 358.0824 0015715 335.8005 147.0007 15.14577786 13456 XW-2D 1 40907U 15049J 15351.88396218 .00004177 00000-0 24193-3 0 9990 2 40907 97.4507 357.9472 0014291 311.2233 167.5606 15.12671426 13430 XW-2F 1 40910U 15049M 15351.88673880 .00005844 00000-0 33602-3 0 9994 2 40910 97.4532 357.9816 0015535 309.3542 169.3058 15.12755505 13327 XW-2B 1 40911U 15049N 15351.88267514 .00003880 00000-0 22491-3 0 9990 2 40911 97.4556 358.0055 0014218 311.5820 166.7106 15.12685593 13337 DCBB 1 40912U 15049P 15351.90273506 .00006137 00000-0 33536-3 0 9992 2 40912 97.4550 358.2404 0015708 307.2838 100.2064 15.14558669 13351 TW-1C 1 40926U 15051B 15351.80007735 .00016247 00000-0 52517-3 0 9991 2 40926 97.2987 25.9971 0015928 349.3057 103.4119 15.32038758 12794 TW-1A 1 40928U 15051D 15351.81487220 .00008866 00000-0 29668-3 0 9994 2 40928 97.2927 25.9059 0015574 4.6712 82.1630 15.31081960 12796 IO-86 1 40931U 15052B 15351.15053279 .00000900 00000-0 36595-4 0 9998 2 40931 5.9929 179.9782 0013635 47.7668 312.3716 14.76392372 11832 AAUSat-5 1 40948U 98067GZ 15351.76406260 .00086476 00000-0 81831-3 0 9996 2 40948 51.6378 244.9513 0005929 218.4736 141.5838 15.66211933 11426 GomX-3 1 40949U 98067HA 15351.76575349 .00027378 00000-0 30934-3 0 9996 2 40949 51.6404 245.7228 0005041 243.6336 116.4141 15.62244383 11418 LQSat 1 40958U 15057A 15351.76311048 .00000382 00000-0 67539-4 0 9996 2 40958 98.0344 63.8954 0018945 21.5617 338.6380 14.72769635 10530 AO-85 1 40967U 15058D 15351.51380747 .00002600 00000-0 28348-3 0 00756 2 40967 064.7788 079.6419 0217356 260.9065 096.7406 14.74533027010195 /EX